Date,TemperatureHighF,TemperatureAvgF,TemperatureLowF,DewpointHighF,DewpointAvgF,DewpointLowF,HumidityHigh,HumidityAvg,HumidityLow,PressureMaxIn,PressureMinIn,WindSpeedMaxMPH,WindSpeedAvgMPH,GustSpeedMaxMPH,PrecipitationSumIn
2013-2-1,9.9,-2.5,-16.8,-0.5,-18.0,-32.1,63,47,29,30.36,30.07,13,4,13,0.00
2013-2-2,14.9,6.4,-1.3,1.9,-6.5,-14.3,67,55,33,30.22,30.00,10,3,10,0.00
2013-2-3,18.0,10.6,3.4,2.9,-1.2,-8.3,68,58,47,30.15,29.99,14,4,14,0.00
2013-2-4,22.8,9.0,-4.9,7.5,-5.4,-15.4,70,53,26,30.12,29.78,14,3,14,0.00
2013-2-5,36.7,25.5,13.6,24.2,15.7,3.1,79,66,51,30.07,29.73,18,6,18,0.08
2013-2-6,37.8,17.8,-3.8,23.5,7.2,-14.9,73,63,51,30.14,29.93,6,3,6,0.05
2013-2-7,26.8,24.1,16.2,18.3,15.4,7.8,76,69,65,30.30,30.02,8,4,8,0.00
2013-2-8,32.7,24.4,18.9,16.3,13.9,8.8,71,64,49,30.40,30.23,14,4,14,0.00
2013-2-9,33.6,28.4,24.6,24.8,20.5,16.0,77,72,68,30.24,29.94,19,7,20,0.00
2013-2-10,33.8,30.8,27.9,28.1,25.0,20.2,82,79,72,29.95,29.34,20,2,20,0.01
2013-2-11,27.9,22.5,13.8,21.0,13.0,3.8,75,66,59,30.11,29.45,0,0,0,0.00
2013-2-12,39.0,22.8,13.3,24.3,12.1,4.1,69,63,50,30.11,29.87,13,2,13,0.21
2013-2-13,41.2,27.0,10.0,28.1,17.9,0.9,80,69,52,29.87,29.63,11,4,11,0.12
2013-2-14,32.5,24.0,4.6,26.8,13.0,-9.2,81,63,43,30.26,29.65,13,3,13,0.04
2013-2-15,19.2,6.9,-1.3,-0.2,-6.6,-12.4,63,54,41,30.38,30.26,11,4,11,0.00
2013-2-16,25.7,11.4,-1.7,6.0,-1.3,-12.4,65,56,40,30.32,30.12,7,3,7,0.01
2013-2-17,36.9,23.5,7.0,21.6,11.9,-3.7,69,61,50,30.13,29.64,19,6,19,0.00
2013-2-18,33.3,20.0,2.1,25.9,9.8,-8.1,76,64,53,29.92,29.58,24,9,24,0.00
2013-2-19,4.1,-2.4,-12.6,-7.9,-17.7,-27.3,61,47,37,30.43,29.92,20,9,20,0.00
2013-2-20,16.9,-0.3,-16.2,-4.7,-16.9,-29.5,57,45,29,30.49,30.41,8,2,8,0.00
2013-2-21,23.7,11.3,-7.6,7.3,-2.4,-18.9,62,53,43,30.44,30.09,14,5,14,0.00
2013-2-22,34.5,22.0,15.3,19.0,12.3,7.0,75,66,51,30.09,29.93,14,4,14,0.12
2013-2-23,29.3,14.4,-3.3,13.3,3.4,-14.6,70,61,45,30.01,29.92,9,3,9,0.00
2013-2-24,39.7,16.0,-7.1,18.2,1.6,-18.1,67,53,34,30.15,30.00,5,1,6,0.00
2013-2-25,39.4,24.1,7.5,22.3,12.4,-1.7,72,61,46,30.16,30.07,8,2,8,0.00
2013-2-26,37.9,21.8,7.5,24.5,11.9,-1.9,73,65,53,30.11,29.94,9,3,9,0.00
2013-2-27,44.6,28.4,18.3,24.6,16.7,7.9,72,62,45,30.10,29.93,17,4,17,0.00
2013-2-28,32.7,26.7,17.4,19.5,15.5,7.6,72,62,54,30.26,30.10,8,3,8,0.00